Jacksonville, FL

1:46 AM EST on February 10, 2016 (GMT -0500)
Jacksonville Naval Air Station

Weather History for KNIP - February, 2013

Change the Weather History Date:

Thursday, February 21, 2013

  Actual Average Record
Temperature  
Mean Temperature 58 °F -  
Max Temperature 68 °F 67 °F 84 °F (1997)
Min Temperature 48 °F 50 °F 36 °F (2009)
Degree Days  
Heating Degree Days 7    
Growing Degree Days 8 (Base 50)    
Moisture  
Dew Point 47 °F    
Average Humidity 66    
Maximum Humidity 89    
Minimum Humidity 39    
Precipitation  
Precipitation 0.00 in - - ()
Sea Level Pressure  
Sea Level Pressure 30.09 in    
Wind  
Wind Speed 3 mph (NNE)    
Max Wind Speed 12 mph    
Max Gust Speed -    
Visibility 10 miles    
Events      
Averages and records for this station are not official NWS values.
T = Trace of Precipitation, MM = Missing Value Source: NWS Daily Summary

Daily Weather History Graph

Daily Weather History Graph

Search for Another Location

Airport or City:

Trip Planner

Search our weather history database for the weather conditions in past years. The results will help you decide how hot, cold, wet, or windy it might be!

Date:

Astronomy

Feb. 21, 2013 Rise Set
Actual Time 7:00 AM EST 6:20 PM EST
Civil Twilight 6:36 AM EST 6:44 PM EST
Nautical Twilight 6:08 AM EST 7:12 PM EST
Astronomical Twilight 5:40 AM EST 7:40 PM EST
Moon 2:44 PM EST (2/21) 3:53 AM EST (2/21)
Length of Visible Light 12h 07m
Length of Day
11h 19m
Waxing Gibbous, 83% of the Moon is Illuminated
Feb 21
Waxing Gibbous
Feb 25
Full
Mar 4
Last Quarter
Mar 11
New
Mar 19
First Quarter

Hourly Weather History & Observations

Time (EST) Temp. Dew Point Humidity Pressure Visibility Wind Dir Wind Speed Gust Speed Precip Events Conditions
12:53 AM 51.1 °F 43.0 °F 74% 30.11 in 10.0 mi Calm Calm - N/A   Scattered Clouds
1:53 AM 51.1 °F 43.0 °F 74% 30.10 in 10.0 mi Calm Calm - N/A   Mostly Cloudy
2:53 AM 50.0 °F 43.0 °F 77% 30.09 in 10.0 mi Calm Calm - N/A   Mostly Cloudy
3:53 AM 48.9 °F 43.0 °F 80% 30.08 in 10.0 mi Calm Calm - N/A   Scattered Clouds
4:53 AM 52.0 °F 46.9 °F 83% 30.10 in 10.0 mi NNW 3.5 mph - N/A   Scattered Clouds
5:53 AM 51.1 °F 46.0 °F 83% 30.10 in 10.0 mi North 5.8 mph - N/A   Scattered Clouds
6:53 AM 48.0 °F 45.0 °F 89% 30.10 in 10.0 mi North 4.6 mph - N/A   Scattered Clouds
7:53 AM 50.0 °F 45.0 °F 83% 30.14 in 10.0 mi NNW 6.9 mph - N/A   Scattered Clouds
8:53 AM 55.0 °F 37.0 °F 51% 30.16 in 10.0 mi NNE 6.9 mph - N/A   Scattered Clouds
9:53 AM 57.9 °F 36.0 °F 44% 30.17 in 10.0 mi North 4.6 mph - N/A   Scattered Clouds
10:53 AM 61.0 °F 36.0 °F 39% 30.16 in 10.0 mi North 5.8 mph - N/A   Scattered Clouds
11:53 AM 63.0 °F 39.0 °F 41% 30.15 in 10.0 mi North 4.6 mph - N/A   Mostly Cloudy
12:53 PM 66.9 °F 42.1 °F 40% 30.12 in 10.0 mi North 5.8 mph - N/A   Mostly Cloudy
1:53 PM 68.0 °F 44.1 °F 42% 30.09 in 10.0 mi North 5.8 mph - N/A   Mostly Cloudy
2:53 PM 68.0 °F 46.9 °F 47% 30.06 in 10.0 mi North 5.8 mph - N/A   Overcast
3:53 PM 66.2 °F 50.0 °F 56% 30.05 in 8.0 mi East 11.5 mph - N/A   Overcast
4:53 PM 66.0 °F 50.0 °F 56% 30.05 in 10.0 mi ENE 9.2 mph - N/A   Mostly Cloudy
5:53 PM 64.0 °F 50.0 °F 60% 30.06 in 10.0 mi ENE 8.1 mph - N/A   Mostly Cloudy
6:53 PM 62.1 °F 50.0 °F 65% 30.06 in 10.0 mi ENE 8.1 mph - N/A   Mostly Cloudy
7:53 PM 61.0 °F 52.0 °F 72% 30.06 in 10.0 mi ENE 5.8 mph - N/A   Mostly Cloudy
8:53 PM 61.0 °F 53.1 °F 75% 30.06 in 10.0 mi NE 3.5 mph - N/A   Mostly Cloudy
9:53 PM 61.0 °F 54.0 °F 78% 30.07 in 10.0 mi Calm Calm - N/A   Mostly Cloudy
10:49 PM 62.6 °F 55.4 °F 77% 30.08 in 10.0 mi Calm Calm - N/A   Mostly Cloudy
10:53 PM 62.1 °F 55.9 °F 80% 30.07 in 10.0 mi Calm Calm - N/A   Mostly Cloudy
11:53 PM 62.1 °F 57.0 °F 84% 30.06 in 10.0 mi Calm Calm - N/A   Mostly Cloudy